QPF
0.00 0.00 0.00 0.00 0.00 0.00 0.00 0.00 0.00 0.00 0.00 0.00 0.00 0.00 0.00 0.00 0.00 0.00 0.00 0.00 0.00 0.00 0.00 0.00 0.00 0.00 0.00 0.00 0.00 0.00 0.00 0.00 0.00 0.00 0.00 0.00 0.00 0.00 0.00 0.00 0.00 0.00 0.00
0.00 0.00 0.00 0.00 0.00 0.00 0.00 0.00 0.00 0.00 0.00 0.00 0.00 0.00 0.00 0.00 0.00 0.00 0.00 0.00 0.00 0.00 0.00 0.00 0.00 0.00 0.00 0.00 0.00 0.00 0.00 0.00 0.00 0.00 0.00 0.00 0.00 0.00 0.00 0.00 0.00 0.00 0.00
0.00 0.00 0.00 0.00 0.00 0.00 0.00 0.00 0.00 0.00 0.00 0.00 0.00 0.00 0.00 0.00 0.00 0.00 0.00 0.00 0.00 0.00 0.00 0.00 0.00 0.00 0.00 0.00 0.00 0.00 0.00 0.00 0.00 0.00 0.00 0.00 0.00 0.00 0.00 0.00 0.00 0.00 0.00
0.00 0.00 0.00 0.00 0.00 0.00 0.00 0.00 0.00 0.00 0.00 0.00 0.00 0.00 0.00 0.00 0.00 0.00 0.00 0.00 0.00 0.00 0.00 0.00 0.00 0.00 0.00 0.00 0.00 0.00 0.00 0.00 0.00 0.00 0.00 0.00 0.00 0.00 0.00 0.00 0.00 0.00 0.00
0.00 0.00 0.00 0.00 0.00 0.00 0.00 0.00 0.00 0.00 0.00 0.00 0.00 0.00 0.00 0.00 0.00 0.00 0.00 0.00 0.00 0.00 0.00 0.00 0.00 0.00 0.00 0.00 0.00 0.00 0.00 0.00 0.00 0.00 0.00 0.00 0.00 0.00 0.00 0.00 0.00 0.00 0.00
0.00 0.00 0.00 0.00 0.00 0.00 0.00 0.00 0.00 0.00 0.00 0.00 0.00 0.00 0.00 0.00 0.00 0.00 0.00 0.00 0.00 0.00 0.00 0.00 0.00 0.00 0.00 0.00 0.00 0.00 0.00 0.00 0.00 0.00 0.00 0.00 0.00 0.01 0.01 0.00 0.00 0.00 0.00
0.00 0.00 0.00 0.00 0.00 0.00 0.00 0.00 0.00 0.00 0.00 0.00 0.00 0.00 0.00 0.00 0.00 0.00 0.00 0.00 0.00 0.00 0.00 0.00 0.00 0.00 0.00 0.00 0.00 0.00 0.00 0.00 0.00 0.00 0.00 0.00 0.00 0.00 0.00 0.00 0.00 0.00 0.00
0.00 0.00 0.00 0.00 0.00 0.00 0.00 0.00 0.00 0.00 0.00 0.00 0.00 0.00 0.00 0.00 0.00 0.00 0.00 0.00 0.00 0.00 0.00 0.00 0.00 0.00 0.00 0.00 0.00 0.00 0.00 0.00 0.00 0.00 0.00 0.00 0.00 0.00 0.00 0.00 0.00 0.00 0.00
0.00 0.00 0.00 0.00 0.00 0.00 0.00 0.00 0.00 0.00 0.00 0.00 0.00 0.00 0.00 0.00 0.00 0.00 0.00 0.00 0.00 0.00 0.00 0.00 0.00 0.00 0.00 0.00 0.00 0.00 0.00 0.00 0.00 0.00 0.00 0.00 0.00 0.00 0.00 0.00 0.00 0.00 0.00
0.00 0.00 0.00 0.00 0.00 0.00 0.00 0.00 0.00 0.00 0.00 0.00 0.00 0.00 0.00 0.00 0.00 0.00 0.00 0.00 0.00 0.00 0.00 0.00 0.00 0.00 0.00 0.00 0.00 0.00 0.00 0.00 0.00 0.00 0.00 0.00 0.00 0.00 0.00 0.00 0.00 0.00 0.00
0.00 0.00 0.00 0.00 0.00 0.00 0.00 0.00 0.00 0.00 0.00 0.00 0.00 0.00 0.00 0.00 0.00 0.00 0.00 0.00 0.00 0.00 0.00 0.00 0.00 0.00 0.00 0.00 0.00 0.00 0.00 0.00 0.00 0.00 0.00 0.00 0.00 0.00 0.00 0.00 0.00 0.00 0.00
0.03 0.03 0.03 0.00 0.00 0.00 0.00 0.00 0.00 0.00 0.00 0.00 0.00 0.00 0.00 0.00 0.00 0.00 0.00 0.00 0.00 0.00 0.00 0.00 0.00 0.00 0.00 0.00 0.00 0.00 0.00 0.00 0.00 0.00 0.00 0.00 0.00 0.00 0.00 0.00 0.00 0.00 0.00
0.02 0.04 0.04 0.06 0.05 0.02 0.00 0.00 0.00 0.00 0.00 0.00 0.00 0.00 0.00 0.00 0.00 0.00 0.00 0.00 0.00 0.00 0.00 0.00 0.00 0.00 0.00 0.00 0.00 0.00 0.00 0.00 0.00 0.00 0.00 0.00 0.00 0.00 0.00 0.00 0.00 0.00 0.00
0.00 0.00 0.01 0.03 0.07 0.07 0.03 0.01 0.00 0.00 0.00 0.00 0.00 0.00 0.00 0.00 0.00 0.00 0.00 0.00 0.00 0.00 0.00 0.00 0.00 0.00 0.00 0.00 0.00 0.00 0.00 0.00 0.00 0.00 0.00 0.00 0.00 0.00 0.00 0.00 0.00 0.00 0.00
0.00 0.01 0.01 0.00 0.02 0.06 0.07 0.09 0.02 0.00 0.00 0.00 0.00 0.00 0.00 0.00 0.00 0.00 0.00 0.00 0.00 0.00 0.00 0.00 0.00 0.00 0.00 0.00 0.00 0.00 0.00 0.00 0.00 0.00 0.00 0.00 0.00 0.00 0.00 0.00 0.00 0.00 0.00
0.00 0.00 0.01 0.03 0.04 0.02 0.09 0.14 0.13 0.06 0.00 0.00 0.00 0.00 0.00 0.00 0.00 0.00 0.00 0.00 0.00 0.00 0.00 0.00 0.00 0.00 0.00 0.00 0.00 0.00 0.00 0.00 0.00 0.00 0.00 0.00 0.00 0.00 0.00 0.00 0.00 0.00 0.00
0.00 0.00 0.00 0.00 0.03 0.06 0.10 0.16 0.16 0.18 0.09 0.04 0.00 0.00 0.00 0.00 0.00 0.00 0.00 0.00 0.00 0.00 0.00 0.00 0.00 0.00 0.00 0.00 0.00 0.00 0.00 0.00 0.00 0.00 0.00 0.00 0.00 0.00 0.00 0.00 0.00 0.00 0.00
0.00 0.00 0.00 0.00 0.00 0.00 0.03 0.08 0.13 0.15 0.21 0.15 0.07 0.01 0.00 0.00 0.00 0.00 0.00 0.00 0.00 0.00 0.00 0.00 0.00 0.00 0.00 0.00 0.00 0.00 0.00 0.00 0.00 0.00 0.00 0.00 0.00 0.00 0.00 0.00 0.00 0.00 0.00
0.00 0.00 0.00 0.00 0.00 0.00 0.00 0.04 0.07 0.13 0.23 0.22 0.27 0.12 0.02 0.00 0.00 0.00 0.00 0.00 0.00 0.00 0.00 0.00 0.00 0.00 0.00 0.00 0.00 0.00 0.00 0.00 0.00 0.00 0.00 0.00 0.00 0.00 0.00 0.00 0.00 0.00 0.00
0.00 0.00 0.00 0.00 0.00 0.00 0.00 0.00 0.00 0.01 0.07 0.19 0.26 0.24 0.13 0.02 0.00 0.00 0.00 0.00 0.00 0.00 0.00 0.00 0.00 0.00 0.00 0.00 0.00 0.00 0.00 0.00 0.00 0.00 0.00 0.00 0.00 0.00 0.00 0.00 0.00 0.00 0.00
0.00 0.00 0.00 0.00 0.00 0.00 0.00 0.00 0.00 0.00 0.00 0.02 0.06 0.28 0.52 0.32 0.07 0.03 0.00 0.00 0.00 0.00 0.00 0.00 0.00 0.00 0.00 0.00 0.00 0.00 0.00 0.00 0.00 0.00 0.00 0.00 0.00 0.00 0.00 0.00 0.00 0.00 0.00
0.00 0.00 0.00 0.00 0.00 0.00 0.00 0.00 0.00 0.00 0.00 0.00 0.02 0.11 0.21 0.31 0.10 0.07 0.02 0.02 0.00 0.00 0.00 0.00 0.00 0.00 0.00 0.00 0.00 0.00 0.00 0.00 0.00 0.00 0.00 0.00 0.00 0.00 0.00 0.00 0.00 0.00 0.00
0.00 0.00 0.00 0.00 0.00 0.00 0.00 0.00 0.00 0.00 0.00 0.00 0.01 0.04 0.12 0.20 0.43 0.32 0.04 0.01 0.02 0.01 0.00 0.00 0.00 0.00 0.00 0.00 0.00 0.00 0.00 0.00 0.00 0.00 0.00 0.00 0.00 0.00 0.00 0.00 0.00 0.00 0.00
0.00 0.00 0.00 0.00 0.00 0.00 0.00 0.00 0.00 0.00 0.00 0.00 0.00 0.00 0.01 0.06 0.20 0.52 0.37 0.07 0.03 0.03 0.01 0.00 0.00 0.00 0.00 0.00 0.00 0.00 0.00 0.00 0.00 0.00 0.00 0.00 0.00 0.00 0.00 0.00 0.00 0.00 0.00
0.00 0.00 0.00 0.00 0.00 0.00 0.00 0.00 0.00 0.00 0.00 0.00 0.00 0.00 0.00 0.02 0.14 0.49 0.66 0.49 0.20 0.11 0.06 0.02 0.00 0.00 0.00 0.00 0.00 0.00 0.00 0.00 0.00 0.00 0.00 0.00 0.00 0.00 0.00 0.00 0.00 0.00 0.00
0.00 0.00 0.00 0.00 0.00 0.00 0.00 0.00 0.00 0.00 0.00 0.00 0.00 0.00 0.00 0.00 0.01 0.07 0.42 0.67 0.60 0.32 0.12 0.06 0.02 0.01 0.00 0.00 0.00 0.00 0.00 0.00 0.00 0.00 0.00 0.00 0.00 0.00 0.00 0.00 0.00 0.00 0.00
MSLP
1012.91 1014.78 1015.54 1015.71 1016.16 1016.59 1016.96 1017.18 1017.32 1017.56 1017.71 1017.85 1017.94 1017.89 1017.89 1017.96 1018.00 1018.02 1018.16 1018.25 1018.32 1018.43 1018.61 1018.76 1018.89 1018.95 1019.11 1019.25 1019.33 1019.42 1019.49 1019.54 1019.63 1019.75 1019.79 1019.86 1019.90 1019.91 1019.86 1019.78 1019.64 1020.08 1020.45
1013.63 1015.01 1016.07 1016.06 1016.60 1017.00 1017.33 1017.64 1017.81 1017.96 1018.19 1018.29 1018.40 1018.47 1018.43 1018.43 1018.45 1018.51 1018.62 1018.70 1018.80 1018.89 1019.07 1019.24 1019.39 1019.51 1019.68 1019.86 1019.99 1020.07 1020.04 1019.98 1019.99 1020.01 1020.10 1020.30 1020.42 1020.48 1020.50 1020.49 1020.56 1020.91 1021.03
1014.30 1015.54 1016.17 1016.61 1016.99 1017.51 1017.77 1018.02 1018.18 1018.41 1018.62 1018.78 1018.87 1018.91 1018.94 1018.92 1018.94 1018.99 1019.09 1019.20 1019.26 1019.36 1019.51 1019.66 1019.82 1019.96 1020.20 1020.36 1020.48 1020.49 1020.43 1020.31 1020.14 1020.02 1019.78 1020.01 1020.89 1021.22 1021.32 1021.33 1021.39 1021.43 1021.46
1014.69 1015.43 1016.39 1017.22 1017.44 1018.01 1018.25 1018.46 1018.55 1018.75 1019.04 1019.23 1019.28 1019.36 1019.41 1019.43 1019.44 1019.50 1019.60 1019.63 1019.66 1019.75 1019.86 1020.08 1020.25 1020.40 1020.62 1020.71 1020.83 1020.72 1020.57 1020.39 1020.30 1020.05 1019.62 1020.34 1021.10 1021.70 1021.81 1021.81 1021.83 1021.85 1021.89
1014.66 1015.67 1017.31 1017.69 1017.74 1018.33 1018.68 1018.88 1019.09 1019.20 1019.40 1019.61 1019.68 1019.73 1019.85 1019.89 1019.92 1019.92 1020.00 1020.00 1019.99 1020.18 1020.40 1020.57 1020.70 1020.85 1021.00 1021.12 1021.16 1020.98 1020.79 1020.63 1020.62 1020.36 1020.34 1020.80 1021.24 1022.04 1022.13 1022.14 1022.15 1022.23 1022.30
1014.89 1016.64 1018.05 1018.22 1018.19 1018.52 1018.97 1019.28 1019.52 1019.74 1019.83 1019.97 1020.07 1020.15 1020.21 1020.28 1020.28 1020.33 1020.35 1020.45 1020.54 1020.75 1020.90 1021.03 1021.15 1021.33 1021.46 1021.52 1021.49 1021.33 1020.93 1020.71 1020.73 1020.25 1020.66 1021.40 1021.89 1022.41 1022.46 1022.57 1022.79 1022.98 1023.03
1015.76 1017.35 1018.26 1018.76 1018.78 1018.82 1019.17 1019.59 1019.85 1020.07 1020.26 1020.40 1020.43 1020.57 1020.63 1020.71 1020.71 1020.74 1020.78 1020.91 1021.05 1021.22 1021.34 1021.46 1021.62 1021.81 1021.94 1021.90 1021.80 1021.63 1021.30 1020.84 1019.60 1020.15 1020.46 1021.63 1022.56 1022.77 1022.93 1023.24 1023.39 1023.50 1023.53
1016.79 1017.48 1018.50 1019.27 1019.42 1019.59 1019.70 1019.91 1020.15 1020.30 1020.55 1020.75 1020.86 1020.91 1021.03 1021.09 1021.21 1021.21 1021.25 1021.34 1021.49 1021.61 1021.74 1021.90 1022.02 1022.16 1022.28 1022.20 1022.11 1021.97 1021.58 1021.26 1020.61 1021.04 1021.21 1022.17 1023.07 1023.19 1023.43 1023.69 1023.85 1023.90 1023.95
1017.38 1017.88 1018.44 1018.98 1019.69 1019.95 1020.18 1020.37 1020.46 1020.49 1020.72 1021.02 1021.24 1021.31 1021.40 1021.46 1021.52 1021.67 1021.74 1021.82 1021.90 1021.98 1022.05 1022.18 1022.35 1022.48 1022.55 1022.54 1022.47 1022.31 1022.03 1021.57 1021.02 1021.80 1021.98 1022.46 1023.49 1023.53 1023.68 1023.88 1024.11 1024.30 1024.37
1017.53 1018.04 1018.30 1018.70 1019.15 1019.59 1020.20 1020.71 1020.87 1020.89 1020.91 1021.08 1021.41 1021.63 1021.77 1021.82 1021.83 1021.92 1022.05 1022.14 1022.23 1022.33 1022.45 1022.56 1022.68 1022.78 1022.88 1022.90 1022.85 1022.58 1022.08 1021.55 1020.90 1021.39 1022.16 1023.06 1023.68 1023.86 1023.96 1024.20 1024.43 1024.59 1024.70
1018.32 1018.29 1018.19 1018.44 1018.97 1019.47 1019.75 1020.58 1021.09 1021.27 1021.31 1021.34 1021.43 1021.69 1021.82 1021.23 1021.62 1021.84 1021.84 1022.12 1022.43 1022.58 1022.71 1022.85 1022.94 1023.02 1023.06 1023.11 1023.03 1022.69 1022.45 1020.97 1020.92 1020.94 1021.96 1023.58 1023.75 1023.99 1024.18 1024.39 1024.62 1024.78 1024.89
1020.41 1019.68 1019.17 1018.81 1018.87 1019.27 1019.06 1020.33 1020.40 1020.61 1020.75 1020.75 1020.80 1021.29 1020.87 1020.49 1020.95 1020.94 1021.58 1022.26 1022.54 1022.69 1022.89 1023.02 1023.08 1023.07 1022.90 1022.20 1022.53 1022.67 1021.89 1021.14 1021.00 1020.96 1022.49 1023.58 1023.81 1024.09 1024.45 1024.65 1024.79 1024.96 1025.21
1021.47 1021.26 1021.10 1021.12 1020.64 1019.38 1018.93 1019.44 1019.63 1019.85 1020.00 1020.26 1020.38 1020.71 1020.30 1020.41 1020.68 1020.95 1021.08 1021.79 1021.93 1022.54 1022.36 1022.78 1022.94 1022.46 1021.77 1021.05 1021.61 1021.26 1021.26 1021.48 1021.08 1021.10 1023.11 1023.68 1023.84 1024.07 1024.47 1024.77 1024.93 1025.14 1025.37
1021.51 1021.91 1021.64 1021.45 1021.50 1021.33 1020.08 1019.14 1018.98 1018.93 1019.50 1019.80 1020.03 1020.38 1020.12 1020.33 1020.42 1020.63 1020.41 1020.91 1021.18 1021.24 1021.08 1021.67 1021.58 1021.39 1021.25 1021.20 1021.17 1021.26 1021.32 1020.86 1021.00 1021.24 1023.25 1023.72 1023.95 1024.09 1024.42 1024.71 1024.94 1025.17 1025.41
1021.96 1022.22 1022.05 1021.56 1021.56 1021.93 1021.55 1020.52 1019.48 1019.00 1018.99 1019.27 1019.64 1020.06 1020.01 1019.94 1019.93 1020.29 1020.12 1020.31 1020.36 1020.45 1020.57 1020.88 1020.59 1020.90 1021.18 1021.32 1021.38 1021.38 1021.40 1021.20 1021.32 1021.09 1022.46 1023.68 1023.92 1024.09 1024.30 1024.65 1024.91 1025.15 1025.38
1022.44 1022.57 1022.43 1021.91 1021.88 1021.98 1022.29 1021.34 1020.41 1019.57 1019.44 1019.03 1019.16 1019.56 1020.23 1019.87 1019.67 1019.92 1020.04 1020.17 1020.07 1020.18 1020.26 1020.42 1020.42 1020.39 1020.77 1020.72 1021.24 1021.35 1021.31 1021.31 1021.48 1021.41 1021.76 1023.37 1023.85 1024.06 1024.25 1024.44 1024.74 1025.04 1025.29
1022.97 1023.11 1022.95 1022.44 1022.22 1022.13 1022.30 1022.25 1021.38 1020.34 1019.67 1019.37 1019.16 1019.02 1019.52 1019.99 1019.70 1019.75 1019.69 1019.75 1019.88 1019.96 1020.30 1020.51 1020.64 1020.71 1020.40 1020.42 1020.52 1021.02 1021.21 1021.35 1021.24 1021.52 1021.43 1022.09 1023.48 1024.08 1024.23 1024.35 1024.52 1024.84 1025.17
1023.71 1023.52 1023.43 1023.11 1022.76 1022.56 1021.90 1022.22 1021.86 1020.95 1020.13 1019.75 1019.30 1019.22 1018.90 1019.30 1019.52 1019.45 1019.40 1019.26 1019.39 1019.63 1019.89 1020.38 1020.53 1020.62 1020.69 1020.50 1020.52 1020.43 1020.72 1020.74 1021.09 1021.36 1021.56 1021.34 1022.00 1022.85 1024.03 1024.23 1024.34 1024.55 1024.94
1024.33 1024.07 1023.78 1023.35 1023.14 1022.80 1021.96 1021.62 1021.42 1021.01 1020.16 1019.82 1019.47 1019.20 1018.56 1018.29 1018.68 1019.03 1018.97 1018.88 1019.09 1019.24 1019.38 1019.81 1020.19 1020.30 1020.24 1020.46 1020.34 1020.34 1020.34 1020.37 1020.30 1020.54 1020.99 1021.38 1021.31 1021.55 1022.28 1023.46 1023.99 1024.31 1024.60
1024.80 1024.51 1024.14 1023.65 1023.36 1022.84 1022.19 1021.60 1021.13 1020.79 1020.94 1020.80 1019.71 1019.09 1018.83 1018.39 1018.31 1018.27 1018.46 1018.59 1018.73 1018.79 1018.86 1019.16 1019.61 1019.79 1020.08 1019.90 1019.88 1019.69 1019.94 1019.92 1020.02 1019.93 1020.18 1020.65 1021.13 1021.39 1021.38 1022.08 1023.27 1023.76 1024.20
1025.23 1025.00 1024.57 1024.06 1023.70 1023.12 1022.47 1022.04 1021.36 1020.84 1020.62 1020.72 1019.57 1019.50 1017.66 1018.17 1018.02 1018.21 1017.54 1017.88 1018.40 1018.46 1018.56 1018.67 1019.18 1019.70 1019.56 1019.93 1019.75 1019.56 1019.37 1019.59 1019.82 1019.73 1019.55 1019.68 1020.10 1020.72 1021.20 1021.18 1022.03 1022.46 1023.21
1025.71 1025.59 1025.05 1024.69 1024.17 1023.77 1023.49 1022.72 1022.14 1021.45 1020.49 1020.60 1020.10 1019.78 1018.99 1017.59 1018.04 1017.68 1016.63 1016.99 1017.39 1017.96 1018.36 1018.42 1018.55 1018.88 1019.24 1019.41 1019.47 1019.37 1018.96 1018.92 1018.89 1019.23 1019.39 1019.19 1019.39 1019.69 1020.17 1020.72 1020.88 1020.97 1021.08
1025.84 1025.64 1025.37 1025.20 1024.77 1024.47 1024.23 1023.18 1022.63 1021.44 1020.66 1020.42 1020.76 1020.16 1019.62 1019.70 1019.66 1015.48 1017.30 1016.49 1016.73 1017.40 1017.57 1018.02 1018.25 1018.41 1018.55 1018.81 1019.08 1019.09 1018.55 1018.04 1017.79 1017.45 1018.16 1018.66 1018.70 1019.10 1019.25 1019.63 1020.15 1020.42 1020.47
1026.00 1025.92 1025.82 1025.49 1025.11 1024.95 1024.70 1023.92 1023.47 1022.56 1021.89 1021.48 1021.33 1021.00 1019.82 1018.87 1019.08 1018.60 1016.18 1017.11 1016.55 1017.00 1017.31 1017.32 1017.66 1017.88 1018.30 1018.15 1018.24 1018.50 1018.70 1018.40 1017.92 1016.89 1016.63 1017.57 1018.14 1018.34 1018.63 1018.86 1018.92 1019.60 1019.89
1026.15 1026.10 1026.03 1025.65 1025.33 1025.37 1025.11 1024.72 1024.04 1023.50 1022.98 1022.12 1021.46 1021.22 1020.59 1019.31 1018.53 1018.86 1018.93 1016.82 1016.77 1016.87 1017.49 1017.38 1016.97 1017.16 1017.42 1017.62 1017.62 1017.52 1018.00 1018.35 1018.28 1018.06 1016.91 1016.41 1017.03 1017.40 1017.63 1017.97 1018.34 1018.42 1018.94
1026.12 1026.25 1026.20 1025.86 1025.54 1025.51 1025.40 1025.13 1024.69 1024.21 1023.60 1022.77 1021.98 1021.22 1020.89 1020.23 1019.09 1018.51 1018.58 1018.84 1018.32 1016.90 1017.43 1017.10 1016.90 1016.64 1016.71 1016.95 1016.99 1017.17 1016.95 1017.01 1017.27 1017.40 1017.17 1016.99 1016.60 1016.28 1016.58 1016.69 1017.13 1017.69 1017.75
Thickness
5776 5761 5754 5750 5744 5739 5734 5730 5726 5723 5721 5719 5718 5718 5718 5716 5715 5714 5712 5712 5712 5711 5710 5710 5709 5709 5708 5706 5705 5704 5703 5702 5701 5698 5697 5696 5695 5694 5694 5695 5695 5692 5690
5772 5759 5751 5749 5743 5738 5733 5728 5723 5720 5718 5716 5715 5714 5713 5713 5712 5711 5710 5709 5710 5709 5709 5708 5708 5708 5706 5704 5702 5701 5702 5702 5700 5699 5697 5695 5694 5693 5693 5692 5691 5688 5687
5767 5756 5749 5746 5742 5735 5731 5725 5721 5717 5715 5713 5711 5710 5710 5710 5710 5709 5708 5707 5708 5708 5708 5708 5707 5708 5705 5703 5701 5701 5701 5702 5702 5701 5702 5698 5692 5690 5689 5688 5687 5687 5686
5763 5756 5748 5741 5738 5732 5728 5723 5719 5716 5713 5711 5709 5708 5707 5707 5707 5707 5706 5707 5707 5707 5707 5707 5707 5706 5704 5704 5701 5702 5702 5703 5703 5705 5705 5699 5693 5689 5687 5687 5686 5686 5685
5764 5755 5743 5739 5737 5731 5726 5721 5716 5714 5711 5709 5708 5706 5706 5706 5705 5705 5706 5706 5707 5707 5705 5705 5705 5705 5704 5703 5702 5702 5703 5704 5704 5705 5702 5698 5695 5689 5688 5687 5686 5685 5684
5762 5748 5739 5736 5735 5730 5725 5720 5715 5710 5708 5707 5705 5705 5704 5704 5705 5704 5705 5705 5705 5704 5704 5704 5704 5703 5702 5702 5702 5702 5705 5706 5706 5706 5702 5696 5692 5688 5687 5686 5684 5682 5681
5754 5742 5735 5733 5732 5730 5725 5719 5715 5710 5706 5704 5703 5703 5703 5702 5703 5704 5704 5703 5702 5702 5702 5702 5702 5701 5700 5700 5701 5701 5703 5706 5714 5708 5706 5697 5690 5688 5686 5683 5681 5679 5679
5746 5739 5732 5727 5726 5724 5722 5719 5715 5711 5706 5703 5701 5702 5702 5702 5700 5701 5702 5702 5701 5700 5700 5701 5701 5700 5699 5699 5700 5700 5703 5705 5707 5704 5702 5695 5689 5687 5685 5682 5680 5679 5678
5740 5735 5730 5726 5722 5720 5718 5715 5713 5712 5708 5704 5700 5700 5700 5700 5701 5699 5699 5699 5699 5699 5699 5699 5699 5699 5698 5698 5698 5699 5701 5704 5705 5699 5698 5693 5686 5686 5684 5682 5680 5678 5677
5736 5732 5729 5725 5722 5719 5715 5712 5710 5709 5708 5706 5702 5699 5697 5698 5699 5700 5699 5697 5697 5697 5698 5698 5698 5697 5697 5697 5697 5698 5702 5705 5707 5703 5696 5690 5686 5683 5682 5681 5679 5677 5676
5727 5728 5728 5727 5722 5718 5716 5711 5708 5706 5705 5704 5703 5701 5699 5700 5699 5699 5700 5699 5697 5696 5695 5695 5695 5695 5695 5695 5696 5698 5700 5707 5707 5707 5699 5688 5685 5682 5681 5679 5677 5676 5675
5704 5714 5718 5721 5721 5718 5720 5711 5710 5708 5706 5706 5704 5701 5704 5706 5702 5703 5700 5698 5696 5696 5694 5694 5694 5694 5696 5699 5697 5698 5702 5706 5707 5707 5696 5688 5686 5682 5679 5677 5675 5674 5673
5694 5699 5703 5705 5709 5715 5718 5715 5714 5712 5711 5708 5706 5703 5706 5706 5704 5701 5702 5697 5697 5695 5695 5694 5693 5695 5700 5705 5702 5705 5705 5703 5706 5706 5693 5688 5685 5682 5679 5676 5675 5673 5672
5690 5689 5694 5696 5697 5699 5708 5714 5716 5716 5712 5710 5708 5705 5706 5704 5704 5703 5704 5701 5700 5701 5703 5699 5700 5702 5703 5703 5704 5704 5703 5707 5706 5704 5691 5687 5685 5683 5679 5677 5675 5672 5671
5680 5681 5685 5689 5690 5690 5693 5700 5708 5713 5713 5712 5709 5706 5705 5705 5705 5703 5705 5703 5703 5703 5703 5702 5705 5703 5701 5700 5700 5701 5701 5703 5702 5704 5694 5687 5685 5683 5680 5677 5674 5672 5671
5670 5672 5676 5681 5683 5682 5683 5688 5695 5700 5705 5710 5710 5707 5702 5704 5704 5702 5702 5702 5704 5703 5702 5702 5703 5704 5702 5702 5698 5697 5698 5699 5698 5699 5697 5687 5684 5682 5680 5677 5674 5672 5670
5659 5660 5663 5668 5673 5675 5676 5677 5683 5689 5693 5702 5705 5708 5704 5701 5702 5701 5701 5701 5701 5702 5699 5698 5698 5698 5701 5702 5701 5697 5696 5696 5697 5695 5696 5692 5683 5680 5678 5676 5675 5672 5669
5647 5649 5651 5655 5661 5663 5670 5670 5674 5680 5687 5689 5696 5700 5704 5702 5701 5701 5700 5701 5701 5699 5698 5696 5695 5695 5695 5697 5698 5699 5697 5697 5695 5694 5692 5694 5690 5684 5677 5675 5675 5673 5670
5633 5636 5640 5644 5649 5654 5661 5664 5668 5674 5680 5682 5687 5691 5699 5704 5702 5700 5701 5700 5698 5698 5698 5695 5694 5694 5694 5693 5695 5697 5697 5697 5699 5697 5694 5691 5691 5690 5685 5679 5675 5673 5671
5621 5624 5627 5632 5636 5642 5649 5655 5661 5666 5668 5671 5682 5687 5685 5690 5694 5699 5699 5699 5697 5697 5698 5697 5694 5694 5692 5694 5695 5697 5697 5698 5697 5698 5697 5693 5690 5687 5688 5685 5677 5674 5672
5606 5608 5613 5617 5621 5627 5635 5639 5648 5654 5660 5662 5674 5670 5665 5667 5682 5686 5697 5697 5694 5696 5696 5697 5693 5688 5690 5690 5689 5691 5695 5696 5695 5697 5698 5697 5694 5690 5686 5687 5682 5679 5675
5590 5590 5595 5598 5604 5609 5612 5619 5627 5635 5648 5649 5657 5662 5665 5668 5677 5684 5698 5697 5695 5693 5692 5694 5694 5689 5688 5689 5683 5683 5681 5689 5695 5695 5695 5697 5696 5694 5691 5687 5687 5687 5686
5575 5576 5578 5578 5582 5587 5591 5601 5607 5619 5629 5637 5640 5647 5652 5658 5657 5668 5670 5690 5693 5690 5692 5690 5690 5688 5685 5686 5686 5681 5677 5680 5691 5702 5698 5697 5697 5695 5694 5692 5689 5687 5688
5560 5560 5559 5561 5563 5565 5569 5578 5584 5593 5601 5611 5619 5626 5639 5653 5647 5645 5662 5663 5679 5680 5683 5689 5688 5687 5682 5682 5685 5687 5685 5685 5681 5686 5702 5698 5697 5696 5694 5694 5694 5690 5689
5544 5543 5542 5543 5545 5544 5547 5552 5562 5568 5576 5588 5600 5608 5620 5634 5644 5635 5633 5653 5656 5668 5664 5673 5682 5684 5683 5682 5681 5685 5682 5680 5680 5675 5681 5694 5697 5697 5697 5696 5694 5695 5693
5529 5526 5525 5526 5526 5524 5525 5530 5535 5543 5552 5564 5576 5587 5598 5611 5624 5629 5628 5626 5636 5649 5653 5657 5667 5675 5677 5678 5680 5680 5683 5681 5677 5675 5675 5680 5685 5696 5698 5700 5699 5696 5697